Weather History for Crestview, FL

Change the Weather History Date:

Tuesday, August 27, 2013

  Actual Average Record
Temperature  
Mean Temperature 75 °F -  
Max Temperature 88 °F - - ()
Min Temperature 62 °F - - ()
Cooling Degree Days 10    
Growing Degree Days 25 (Base 50)    
Moisture  
Dew Point 66 °F    
Average Humidity 74    
Maximum Humidity 96    
Minimum Humidity 47    
Precipitation  
Precipitation 0.00 in - - ()
Sea Level Pressure  
Sea Level Pressure 30.08 in    
Wind  
Wind Speed 3 mph (North)    
Max Wind Speed 7 mph    
Max Gust Speed -    
Visibility 10 miles    
Events      
T = Trace of Precipitation, MM = Missing Value Source: NWS Daily Summary

Daily Weather History Graph

Daily Weather History Graph

Search for Another Location

Airport:

Trip Planner

Search our weather history database for the weather conditions in past years. The results will help you decide how hot, cold, wet, or windy it might be!

Date:

Astronomy

Aug. 27, 2013 Rise Set
Actual Time 6:19 AM CDT 7:14 PM CDT
Civil Twilight 5:55 AM CDT 7:39 PM CDT
Nautical Twilight 5:25 AM CDT 8:08 PM CDT
Astronomical Twilight 4:55 AM CDT 8:38 PM CDT
Moon 11:38 PM CDT (8/27) 12:47 PM CDT (8/27)
Length of Visible Light 13h 44m
Length of Day
12h 54m
Waning Gibbous, 57% of the Moon is Illuminated
Aug 27
Waning Gibbous
Aug 28
Last Quarter
Sep 5
New
Sep 12
First Quarter
Sep 19
Full

Hourly Weather History & Observations

Time (CDT) Temp. Heat Index Dew Point Humidity Pressure Visibility Wind Dir Wind Speed Gust Speed Precip Events Conditions
12:58 AM 68.2 °F - 63.1 °F 84% 30.14 in 10.0 mi NE 2.3 mph - N/A   Clear
1:58 AM 66.9 °F - 62.6 °F 86% 30.12 in 10.0 mi North 2.3 mph - N/A   Clear
2:58 AM 64.4 °F - 62.6 °F 94% 30.11 in 10.0 mi North 1.2 mph - N/A   Clear
3:58 AM 64.0 °F - 62.2 °F 94% 30.11 in 10.0 mi NNW 1.2 mph - N/A   Clear
4:58 AM 63.5 °F - 62.1 °F 95% 30.09 in 10.0 mi North 2.3 mph - N/A   Clear
5:58 AM 62.2 °F - 60.8 °F 95% 30.09 in 10.0 mi North 3.5 mph - N/A   Clear
6:58 AM 63.3 °F - 62.2 °F 96% 30.12 in 10.0 mi North 2.3 mph - N/A   Clear
7:58 AM 69.3 °F - 64.4 °F 84% 30.13 in 10.0 mi NE 4.6 mph - N/A   Clear
8:57 AM 75.6 °F - 66.6 °F 74% 30.13 in 10.0 mi NNE 3.5 mph - N/A   Scattered Clouds
9:57 AM 80.1 °F 82.9 °F 69.3 °F 69% 30.10 in 10.0 mi NNE 5.8 mph - N/A   Scattered Clouds
10:59 AM 80.8 °F 83.6 °F 68.5 °F 66% 30.12 in 10.0 mi ESE 1.2 mph - N/A   Scattered Clouds
11:55 AM 85.3 °F 87.9 °F 66.7 °F 54% 30.09 in 10.0 mi North 6.9 mph - N/A   Scattered Clouds
12:55 PM 85.6 °F 87.6 °F 65.8 °F 51% 30.07 in 10.0 mi Variable 4.6 mph - N/A   Scattered Clouds
1:55 PM 85.3 °F 87.1 °F 65.3 °F 51% 30.06 in 10.0 mi NE 3.5 mph - N/A   Scattered Clouds
2:55 PM 85.3 °F 87.1 °F 65.3 °F 51% 30.04 in 10.0 mi Calm Calm - N/A   Scattered Clouds
3:55 PM 88.3 °F 90.5 °F 65.5 °F 47% 30.04 in 10.0 mi Variable 3.5 mph - N/A   Scattered Clouds
4:55 PM 85.6 °F 87.6 °F 65.7 °F 51% 30.04 in 10.0 mi NNW 4.6 mph - N/A   Mostly Cloudy
5:55 PM 84.0 °F 87.8 °F 69.1 °F 61% 30.04 in 10.0 mi SW 5.8 mph - N/A   Scattered Clouds
6:55 PM 82.6 °F 85.9 °F 68.9 °F 63% 30.03 in 10.0 mi SSW 5.8 mph - N/A   Scattered Clouds
7:55 PM 77.2 °F - 68.9 °F 76% 30.04 in 10.0 mi South 4.6 mph - N/A   Scattered Clouds
8:55 PM 74.5 °F - 68.7 °F 82% 30.06 in 10.0 mi West 2.3 mph - N/A   Scattered Clouds
9:55 PM 72.9 °F - 68.5 °F 86% 30.06 in 10.0 mi North 3.5 mph - N/A   Partly Cloudy
10:55 PM 72.1 °F - 68.0 °F 87% 30.06 in 10.0 mi North 3.5 mph - N/A   Partly Cloudy
11:55 PM 72.7 °F - 67.5 °F 84% 30.05 in 10.0 mi North 3.5 mph - N/A   Clear